Regional Weather Roundup
Issued by NWS Mobile, AL

Home | Current Version | Previous Version | Text Only | Print | Product List | Glossary On
Versions: 1 2 3 4 5 6 7 8 9 10 11 12 13 14 15 16 17 18 19 20 21 22 23 24 25 26 27 28 29 30 31 32 33 34 35 36 37 38 39 40 41 42 43 44 45 46 47 48 49 50
000
ASUS44 KMOB 231813
RWRMOB
REGIONAL WEATHER ROUNDUP
NATIONAL WEATHER SERVICE MOBILE AL
100 PM CDT MON OCT 23 2017

NOTE: "FAIR" INDICATES FEW OR NO CLOUDS BELOW 12,000 FEET WITH NO
      SIGNIFICANT WEATHER AND/OR OBSTRUCTIONS TO VISIBILITY.

  * THESE STATIONS ARE PART OF THE UNIVERSITY OF SOUTH ALABAMA
    MESONET AND ARE NOT UNDER NWS OR FAA QUALITY CONTROL.

ALZ061>064-231900-
COASTAL ALABAMA

CITY           SKY/WX    TMP DP  RH WIND       PRES   REMARKS
MOBILE REG APT MOSUNNY   71  53  52 NW9       30.01F
6HR MIN TEMP:  61; 6HR MAX TEMP:  72;

BROOKLEY FIELD SUNNY     74  57  55 NW9       30.00F
6HR MIN TEMP:  63; 6HR MAX TEMP:  74;

USA CAMPUS*    NOT AVBL
DOG RIVER*     NOT AVBL


CITY           SKY/WX    TMP DP  RH WIND       PRES   REMARKS
GULF SHORES    SUNNY     72  56  57 NW10G22   29.98F

$$

ALZ051>060-231900-
INTERIOR SOUTHWEST AND SOUTH CENTRAL ALABAMA

CITY           SKY/WX    TMP DP  RH WIND       PRES   REMARKS
GREENVILLE     NOT AVBL
EVERGREEN      SUNNY     71  54  54 VRB7      29.97F
6HR MIN TEMP:  64; 6HR MAX TEMP:  72;

ATMORE*          N/A    N/A N/A N/A NW10        N/A
ANDALUSIA/OPP  SUNNY     75  55  49 W13       29.95F
6HR MIN TEMP:  70; 6HR MAX TEMP:  75;

ANDALUSIA*       N/A     70  55  60 NW12      29.96S
FLORALA APT    SUNNY     73  56  54 N8        29.96F
6HR MIN TEMP:  68; 6HR MAX TEMP:  73;

FLORALA*         N/A     72  57  60 SW6       30.61F

$$

FLZ001>006-231900-
WESTERN FLORIDA PANHANDLE

CITY           SKY/WX    TMP DP  RH WIND       PRES   REMARKS
PENSACOLA      SUNNY     75  55  49 NW17      29.96F
6HR MIN TEMP:  67; 6HR MAX TEMP:  75;

NAS PENSACOLA  MOSUNNY   74  55  51 NW16G24   29.95F
6HR MIN TEMP:  64; 6HR MAX TEMP:  74;

MILTON         MOSUNNY   72  57  59 NW10G20   29.96F
6HR MIN TEMP:  64; 6HR MAX TEMP:  72;

WHTNG S FIELD  MOSUNNY   75  55  49 NW10      29.96F
6HR MIN TEMP:  67; 6HR MAX TEMP:  76;



CITY           SKY/WX    TMP DP  RH WIND       PRES   REMARKS
JAY*           NOT AVBL
DUKE FIELD     MOSUNNY   74  55  51 W10       29.93F
CRESTVIEW      SUNNY     75  56  51 NW13G18   29.95F
6HR MIN TEMP:  68; 6HR MAX TEMP:  75;

VALPARAISO     MOSUNNY   76  54  46 NW13      29.93F
6HR MIN TEMP:  69; 6HR MAX TEMP:  76;

DESTIN         SUNNY     77  56  48 NW12      29.93F
6HR MIN TEMP:  73; 6HR MAX TEMP:  77;


$$

MSZ076-079-231900-
INTERIOR SOUTHEAST MISSISSIPPI

CITY           SKY/WX    TMP DP  RH WIND       PRES   REMARKS
LEAKESVILLE*   NOT AVBL
AGRICOLA*        N/A     70  52  52 NW9       30.00

$$

MARINE OBSERVATIONS

STATION/POSITION TIME  TEMP    WIND        PRES    WAVE
                       AIR SEA DIR/SP/G            HT/PER
                 (UTC) (F)     (DEG/KT/KT) (MB)    (FT/S)
PASCAGOULA       1742   70     310/ 11/ 15 1016.1F
PETIT BOIS ISLND 1742   68     300/ 13/ 16 1017.0F
GRAND BAY        1645   68     340/ 10     1017.0F
KATRINA CUT      1730   68     310/ 14     1015.9F
CEDAR POINT      1730   69     300/ 10     1015.9F
E DAUPHIN ISLAND 1700   68     290/ 14/ 16 1015.9F
MIDDLE BAY LIGHT 1730   71     320/ 14     1015.9F
USCG MOBILE BAY  1742   70 75  320/  6/ 12 1015.8F
STATE DOCKS      1742   76 74              1015.6F
MEAHER PARK      1730   70     310/ 11     1016.3F
WEEKS BAY        1645   70                 1016.0S
FORT MORGAN      1742   68     300/ 13/ 15   N/A
12 S ORANGE BCH  1750      78  270/ 17/ 21 1014.4F   4/ 8
PENSACOLA BAY    1742   72 76              1014.7F
64 S DAUPHIN ISL 1750   71 81  320/ 17/ 21 1016.2F   6/ 5
67 S FORT MORGAN 1730   73        CALM     1015.9F

$$

SELECTED LOCATIONS ACROSS THE REGION

CITY           SKY/WX    TMP DP  RH WIND       PRES   REMARKS
NEW ORLEANS    MOSUNNY   69  55  60 NW10      30.05F
GULFPORT       SUNNY     73  52  47 NW15G21   30.01F
PASCAGOULA AP  SUNNY     74  53  48 NW9G20    30.00F
PASCAGOULA*    NOT AVBL
HATTIESBURG    SUNNY     69  52  54 NW13G23   30.04F
LAUREL         SUNNY     68  49  50 NW10G22   30.05S
MERIDIAN       CLOUDY    64  53  67 W12       30.04S
JACKSON        MOSUNNY   69  45  41 NW10      30.07F
MONTGOMERY     MOSUNNY   73  52  47 W13G22    29.95F
TROY           SUNNY     71  56  58 NW14      29.95F
ASHFORD*         N/A     70  55  60 NW12      29.96S
DOTHAN         SUNNY     75  61  61 W13       29.95F
PANAMA CITY    SUNNY     78  62  57 NW13G21   29.91F

$$




USA.gov is the U.S. government's official web portal to all federal, state and local government web resources and services.